WJA781 CYYT-CYYZ

Flight info

Callsign WJA781
Flight time N/A
Altitude 34000
Route TEXED DCT CADIL DCT MIILS DCT LETAK IMEBA9
Aircraft B737/M-SDE2E3FGHIRWXY/LB1

Departure

Time 2026-04-25 19:16
Airport St. John's International Airport (CYYT)

Arrival

Time N/A
Airport Toronto Pearson International Airport (CYYZ)
Time Latitude Longitude Altitude Speed Heading
2026-04-25 18:21 47.61409 -52.74465 448 ft 0 kts 173°
2026-04-25 18:22 47.61417 -52.74466 448 ft 0 kts 173°
2026-04-25 18:23 47.61409 -52.74465 448 ft 0 kts 173°
2026-04-25 18:55 47.61412 -52.74465 448 ft 2 kts 173°
2026-04-25 18:56 47.61438 -52.74470 448 ft 4 kts 172°
2026-04-25 18:56 47.61460 -52.74475 448 ft 4 kts 161°
2026-04-25 18:56 47.61479 -52.74493 448 ft 4 kts 103°
2026-04-25 18:56 47.61476 -52.74529 448 ft 4 kts 58°
2026-04-25 18:57 47.61471 -52.74539 448 ft 1 kts 52°
2026-04-25 19:01 47.61486 -52.74510 448 ft 5 kts 52°
2026-04-25 19:01 47.61498 -52.74469 448 ft 4 kts 79°
2026-04-25 19:01 47.61493 -52.74421 448 ft 5 kts 107°
2026-04-25 19:01 47.61499 -52.74371 448 ft 6 kts 57°
2026-04-25 19:02 47.61574 -52.74258 436 ft 9 kts 37°
2026-04-25 19:02 47.61629 -52.74280 444 ft 9 kts 319°
2026-04-25 19:02 47.61691 -52.74359 440 ft 15 kts 319°
2026-04-25 19:03 47.61816 -52.74518 457 ft 14 kts 320°
2026-04-25 19:03 47.61895 -52.74650 461 ft 13 kts 263°
2026-04-25 19:03 47.61842 -52.74755 458 ft 13 kts 229°
2026-04-25 19:04 47.61844 -52.74872 461 ft 8 kts 319°
2026-04-25 19:04 47.61885 -52.74926 459 ft 8 kts 319°
2026-04-25 19:05 47.61937 -52.74923 461 ft 5 kts 52°
2026-04-25 19:05 47.61971 -52.74865 460 ft 0 kts 49°
2026-04-25 19:10 47.61973 -52.74862 461 ft 2 kts 49°
2026-04-25 19:10 47.61991 -52.74831 461 ft 6 kts 49°
2026-04-25 19:11 47.62027 -52.74769 460 ft 10 kts 48°
2026-04-25 19:11 47.62085 -52.74671 454 ft 16 kts 50°
2026-04-25 19:11 47.62172 -52.74650 452 ft 15 kts 321°
2026-04-25 19:11 47.62251 -52.74750 451 ft 16 kts 319°
2026-04-25 19:12 47.62342 -52.74867 449 ft 19 kts 319°
2026-04-25 19:12 47.62444 -52.75006 428 ft 20 kts 303°
2026-04-25 19:12 47.62459 -52.75201 439 ft 19 kts 266°
2026-04-25 19:12 47.62449 -52.75409 448 ft 21 kts 266°
2026-04-25 19:13 47.62439 -52.75618 458 ft 20 kts 266°
2026-04-25 19:13 47.62429 -52.75829 464 ft 22 kts 265°
2026-04-25 19:13 47.62418 -52.76056 472 ft 22 kts 264°
2026-04-25 19:13 47.62407 -52.76277 475 ft 21 kts 266°
2026-04-25 19:14 47.62397 -52.76494 473 ft 21 kts 265°
2026-04-25 19:14 47.62393 -52.76564 473 ft 21 kts 266°
2026-04-25 19:14 47.62378 -52.76905 463 ft 18 kts 265°
2026-04-25 19:14 47.62329 -52.77058 463 ft 16 kts 262°
2026-04-25 19:15 47.62348 -52.77142 461 ft 7 kts 354°
2026-04-25 19:15 47.62370 -52.77085 463 ft 7 kts 84°
2026-04-25 19:15 47.62370 -52.77043 463 ft 0 kts 85°
2026-04-25 19:15 47.62371 -52.77038 463 ft 6 kts 85°
2026-04-25 19:16 47.62392 -52.76583 473 ft 82 kts 86°
2026-04-25 19:16 47.62452 -52.75392 448 ft 150 kts 83°
2026-04-25 19:16 47.62512 -52.73627 737 ft 182 kts 83°
2026-04-25 19:16 47.62471 -52.71683 1597 ft 191 kts 85°
2026-04-25 19:17 47.62389 -52.69635 2245 ft 211 kts 85°
2026-04-25 19:17 47.62292 -52.67476 3194 ft 205 kts 86°
2026-04-25 19:17 47.62221 -52.65396 4034 ft 207 kts 75°
2026-04-25 19:17 47.62791 -52.63391 4330 ft 224 kts 43°
2026-04-25 19:18 47.64112 -52.62126 5047 ft 231 kts 14°
2026-04-25 19:18 47.65737 -52.62135 5963 ft 240 kts 346°
2026-04-25 19:18 47.67161 -52.63422 6975 ft 253 kts 320°
2026-04-25 19:18 47.68102 -52.65752 7840 ft 276 kts 293°
2026-04-25 19:19 47.68292 -52.68647 8825 ft 289 kts 276°
2026-04-25 19:19 47.68207 -52.71683 9638 ft 297 kts 274°
2026-04-25 19:19 47.68095 -52.74743 10435 ft 305 kts 273°
2026-04-25 19:19 47.68058 -52.75816 10571 ft 313 kts 273°
2026-04-25 19:20 47.67888 -52.81556 11145 ft 349 kts 273°
2026-04-25 19:20 47.67796 -52.85194 11948 ft 355 kts 273°
2026-04-25 19:20 47.67648 -52.88846 12842 ft 360 kts 269°
2026-04-25 19:20 47.67323 -52.92569 13651 ft 366 kts 266°
2026-04-25 19:21 47.66930 -52.96329 14409 ft 371 kts 266°
2026-04-25 19:21 47.66108 -53.03991 15920 ft 381 kts 266°
2026-04-25 19:21 47.65705 -53.07860 16668 ft 386 kts 266°
2026-04-25 19:22 47.65299 -53.11835 17426 ft 390 kts 266°
2026-04-25 19:22 47.64895 -53.15847 18087 ft 395 kts 266°
2026-04-25 19:22 47.64088 -53.23905 19529 ft 399 kts 266°
2026-04-25 19:23 47.63680 -53.27990 20225 ft 402 kts 266°
2026-04-25 19:23 47.62848 -53.36276 21591 ft 408 kts 266°
2026-04-25 19:23 47.62432 -53.40394 22247 ft 411 kts 266°
2026-04-25 19:24 47.62006 -53.44604 22887 ft 414 kts 265°
2026-04-25 19:24 47.61573 -53.48857 23426 ft 417 kts 265°
2026-04-25 19:24 47.60700 -53.57383 24533 ft 421 kts 265°
2026-04-25 19:25 47.59811 -53.66012 25435 ft 429 kts 265°
2026-04-25 19:25 47.59357 -53.70393 25906 ft 432 kts 265°
2026-04-25 19:25 47.58897 -53.74807 26373 ft 435 kts 265°
2026-04-25 19:26 47.58430 -53.79277 26827 ft 438 kts 265°
2026-04-25 19:26 47.57966 -53.83701 27260 ft 441 kts 264°
2026-04-25 19:26 47.57491 -53.88208 27689 ft 444 kts 264°
2026-04-25 19:26 47.57012 -53.92749 28115 ft 447 kts 264°
2026-04-25 19:27 47.56526 -53.97323 28535 ft 450 kts 264°
2026-04-25 19:27 47.56361 -53.98872 28673 ft 451 kts 264°
2026-04-25 19:27 47.55547 -54.06502 29319 ft 456 kts 264°
2026-04-25 19:27 47.55047 -54.11160 29660 ft 459 kts 264°
2026-04-25 19:28 47.54671 -54.15843 30021 ft 457 kts 271°
2026-04-25 19:28 47.54768 -54.20521 30478 ft 451 kts 278°
2026-04-25 19:28 47.55037 -54.25146 30960 ft 449 kts 278°
2026-04-25 19:28 47.55326 -54.29699 31346 ft 448 kts 278°
2026-04-25 19:29 47.55619 -54.34309 31678 ft 449 kts 278°
2026-04-25 19:29 47.55904 -54.38942 32024 ft 450 kts 278°
2026-04-25 19:29 47.56176 -54.43554 32443 ft 448 kts 278°
2026-04-25 19:29 47.56436 -54.48102 32866 ft 447 kts 277°
2026-04-25 19:30 47.56692 -54.52701 33253 ft 447 kts 277°
2026-04-25 19:30 47.56942 -54.57303 33573 ft 446 kts 277°
2026-04-25 19:30 47.57188 -54.61888 33859 ft 446 kts 278°
2026-04-25 19:30 47.57427 -54.66431 34087 ft 447 kts 278°
2026-04-25 19:31 47.57668 -54.71026 34326 ft 448 kts 277°
2026-04-25 19:31 47.57908 -54.75644 34573 ft 448 kts 278°
2026-04-25 19:31 47.58144 -54.80185 34828 ft 447 kts 278°
2026-04-25 19:31 47.58382 -54.84811 35238 ft 442 kts 278°
2026-04-25 19:32 47.58612 -54.89292 35433 ft 443 kts 277°
2026-04-25 19:32 47.58850 -54.93872 35447 ft 447 kts 277°
2026-04-25 19:32 47.59162 -55.00068 35474 ft 453 kts 277°
2026-04-25 19:33 47.59706 -55.10947 35462 ft 455 kts 276°
2026-04-25 19:33 47.60157 -55.20255 35452 ft 456 kts 276°
2026-04-25 19:34 47.60605 -55.29648 35427 ft 455 kts 278°
2026-04-25 19:34 47.61043 -55.39008 35429 ft 454 kts 277°
2026-04-25 19:35 47.61472 -55.48267 35423 ft 452 kts 277°
2026-04-25 19:35 47.61897 -55.57577 35426 ft 451 kts 276°
2026-04-25 19:36 47.62308 -55.66803 35402 ft 450 kts 276°
2026-04-25 19:36 47.62710 -55.76049 35409 ft 448 kts 277°
2026-04-25 19:37 47.63108 -55.85231 35413 ft 447 kts 278°
2026-04-25 19:37 47.63502 -55.94472 35429 ft 448 kts 278°
2026-04-25 19:38 47.63887 -56.03707 35199 ft 454 kts 277°
2026-04-25 19:38 47.64080 -56.08385 34974 ft 452 kts 276°
2026-04-25 19:38 47.64269 -56.13052 34726 ft 448 kts 275°
2026-04-25 19:39 47.64449 -56.17606 34513 ft 447 kts 276°
2026-04-25 19:39 47.64631 -56.22232 34270 ft 447 kts 276°
2026-04-25 19:39 47.64807 -56.26787 34060 ft 445 kts 277°
2026-04-25 19:39 47.64985 -56.31383 33822 ft 446 kts 277°
2026-04-25 19:40 47.65160 -56.35994 33604 ft 447 kts 275°
2026-04-25 19:40 47.65334 -56.40628 33520 ft 450 kts 277°
2026-04-25 19:40 47.65681 -56.49936 33498 ft 454 kts 277°
2026-04-25 19:41 47.66026 -56.59298 33488 ft 452 kts 275°
2026-04-25 19:41 47.66304 -56.66969 33503 ft 444 kts 275°
2026-04-25 19:42 47.66676 -56.77592 33513 ft 444 kts 275°
2026-04-25 19:42 47.66989 -56.86820 33560 ft 453 kts 275°
2026-04-25 19:43 47.67302 -56.96191 33550 ft 454 kts 277°
2026-04-25 19:43 47.67608 -57.05485 33557 ft 450 kts 275°
2026-04-25 19:44 47.67904 -57.14739 33559 ft 446 kts 274°
2026-04-25 19:44 47.68186 -57.23944 33568 ft 448 kts 276°
2026-04-25 19:45 47.68469 -57.33252 33589 ft 458 kts 275°
2026-04-25 19:45 47.68748 -57.42743 33580 ft 459 kts 273°
2026-04-25 19:46 47.69015 -57.52149 33584 ft 457 kts 274°
2026-04-25 19:46 47.69270 -57.61596 33597 ft 456 kts 274°
2026-04-25 19:47 47.69522 -57.70947 33590 ft 455 kts 275°
2026-04-25 19:47 47.69768 -57.80365 33599 ft 455 kts 276°
2026-04-25 19:48 47.70001 -57.89716 33604 ft 454 kts 276°
2026-04-25 19:48 47.70232 -57.99119 33616 ft 455 kts 276°
2026-04-25 19:49 47.70415 -58.06885 33619 ft 456 kts 275°
2026-04-25 19:49 47.70666 -58.17865 33625 ft 456 kts 276°
2026-04-25 19:50 47.70976 -58.32009 33631 ft 456 kts 275°
2026-04-25 19:51 47.71166 -58.41386 33643 ft 457 kts 276°
2026-04-25 19:51 47.71357 -58.50835 33651 ft 457 kts 275°
2026-04-25 19:52 47.71535 -58.60226 33678 ft 457 kts 276°
2026-04-25 19:52 47.71709 -58.69690 33672 ft 457 kts 276°
2026-04-25 19:53 47.71879 -58.79096 33692 ft 458 kts 274°
2026-04-25 19:53 47.72031 -58.88550 33694 ft 457 kts 276°
2026-04-25 19:54 47.72182 -58.98017 33697 ft 457 kts 275°
2026-04-25 19:54 47.72325 -59.07447 33687 ft 458 kts 276°
2026-04-25 19:55 47.72456 -59.16894 33692 ft 457 kts 275°
2026-04-25 19:55 47.72585 -59.26298 33703 ft 456 kts 274°
2026-04-25 19:56 47.72703 -59.35695 33720 ft 456 kts 275°
2026-04-25 19:56 47.72809 -59.45119 33728 ft 456 kts 274°
2026-04-25 19:57 47.72911 -59.54570 33744 ft 456 kts 274°
2026-04-25 19:57 47.73006 -59.63944 33757 ft 455 kts 275°
2026-04-25 19:58 47.73095 -59.73369 33755 ft 455 kts 275°
2026-04-25 19:58 47.73174 -59.82720 33757 ft 454 kts 275°
2026-04-25 19:59 47.73245 -59.92097 33773 ft 453 kts 275°
2026-04-25 19:59 47.73309 -60.01404 33784 ft 451 kts 275°
2026-04-25 20:00 47.73365 -60.10767 33785 ft 452 kts 275°
2026-04-25 20:00 47.73414 -60.20129 33788 ft 452 kts 275°
2026-04-25 20:01 47.73474 -60.34133 33807 ft 452 kts 275°
2026-04-25 20:01 47.73448 -60.43422 33805 ft 454 kts 270°
2026-04-25 20:02 47.72614 -60.52792 33816 ft 457 kts 266°
2026-04-25 20:02 47.71596 -60.62059 33811 ft 456 kts 265°
2026-04-25 20:03 47.70591 -60.71381 33809 ft 456 kts 266°
2026-04-25 20:03 47.69625 -60.80645 33826 ft 455 kts 266°
2026-04-25 20:04 47.68663 -60.89950 33838 ft 455 kts 266°
2026-04-25 20:04 47.67698 -60.99248 33852 ft 455 kts 266°
2026-04-25 20:05 47.66730 -61.08482 33855 ft 454 kts 266°
2026-04-25 20:05 47.65750 -61.17753 33860 ft 454 kts 266°
2026-04-25 20:06 47.64768 -61.26957 33862 ft 454 kts 266°
2026-04-25 20:06 47.63770 -61.36244 33876 ft 454 kts 266°
2026-04-25 20:07 47.62769 -61.45486 33886 ft 453 kts 266°
2026-04-25 20:07 47.61767 -61.54672 33951 ft 456 kts 265°
2026-04-25 20:08 47.61256 -61.59332 34229 ft 456 kts 265°
2026-04-25 20:08 47.60743 -61.63979 34618 ft 453 kts 265°
2026-04-25 20:08 47.60233 -61.68572 34930 ft 451 kts 265°
2026-04-25 20:08 47.59728 -61.73119 35145 ft 452 kts 265°
2026-04-25 20:09 47.59213 -61.77742 35346 ft 454 kts 265°
2026-04-25 20:09 47.58697 -61.82363 35608 ft 453 kts 265°
2026-04-25 20:09 47.58186 -61.86910 35878 ft 452 kts 264°
2026-04-25 20:09 47.57665 -61.91536 35878 ft 456 kts 264°
2026-04-25 20:10 47.56614 -62.00807 35889 ft 454 kts 264°
2026-04-25 20:10 47.55568 -62.09947 35905 ft 450 kts 264°
2026-04-25 20:11 47.54517 -62.19074 35904 ft 448 kts 264°
2026-04-25 20:11 47.53463 -62.28168 35907 ft 446 kts 264°
2026-04-25 20:12 47.52414 -62.37159 35918 ft 445 kts 264°
2026-04-25 20:12 47.51703 -62.43221 35929 ft 446 kts 264°
2026-04-25 20:13 47.50281 -62.55255 35934 ft 448 kts 264°
2026-04-25 20:13 47.49192 -62.64390 35938 ft 450 kts 264°
2026-04-25 20:14 47.48099 -62.73487 35939 ft 452 kts 264°
2026-04-25 20:14 47.46988 -62.82671 35939 ft 453 kts 264°
2026-04-25 20:15 47.45877 -62.91798 35942 ft 454 kts 264°
2026-04-25 20:15 47.44746 -63.01018 35951 ft 455 kts 264°
2026-04-25 20:16 47.43609 -63.10218 35962 ft 455 kts 264°
2026-04-25 20:16 47.42471 -63.19371 35953 ft 455 kts 264°
2026-04-25 20:17 47.41319 -63.28572 35950 ft 454 kts 263°
2026-04-25 20:17 47.40168 -63.37700 35971 ft 453 kts 263°
2026-04-25 20:18 47.39011 -63.46820 35982 ft 453 kts 263°
2026-04-25 20:18 47.37841 -63.55982 35968 ft 453 kts 263°
2026-04-25 20:19 47.36865 -63.63578 35990 ft 453 kts 263°
2026-04-25 20:19 47.35491 -63.74199 35996 ft 453 kts 263°
2026-04-25 20:20 47.34501 -63.81796 35980 ft 452 kts 263°
2026-04-25 20:20 47.33316 -63.90838 35989 ft 451 kts 263°
2026-04-25 20:21 47.32119 -63.99912 35996 ft 449 kts 263°
2026-04-25 20:21 47.30920 -64.08952 36004 ft 447 kts 263°
2026-04-25 20:22 47.29929 -64.16382 36008 ft 446 kts 263°
2026-04-25 20:22 47.28526 -64.26830 36007 ft 445 kts 262°
2026-04-25 20:23 47.27313 -64.35799 35986 ft 444 kts 262°
2026-04-25 20:23 47.26107 -64.44663 35995 ft 443 kts 263°
2026-04-25 20:24 47.24892 -64.53542 36002 ft 443 kts 262°
2026-04-25 20:24 47.23666 -64.62441 36008 ft 443 kts 262°
2026-04-25 20:25 47.22434 -64.71338 36011 ft 443 kts 262°
2026-04-25 20:25 47.21200 -64.80191 36015 ft 444 kts 262°
2026-04-25 20:26 47.19950 -64.89100 35993 ft 444 kts 262°
2026-04-25 20:26 47.18697 -64.97983 36011 ft 445 kts 262°
2026-04-25 20:27 47.17430 -65.06917 36009 ft 446 kts 262°
2026-04-25 20:27 47.16153 -65.15858 36023 ft 447 kts 262°
2026-04-25 20:28 47.14865 -65.24827 36023 ft 449 kts 262°
2026-04-25 20:28 47.13574 -65.33767 36026 ft 450 kts 262°
2026-04-25 20:29 47.12263 -65.42788 36018 ft 450 kts 262°
2026-04-25 20:29 47.10953 -65.51747 36028 ft 451 kts 262°
2026-04-25 20:30 47.09625 -65.60779 36034 ft 451 kts 262°
2026-04-25 20:30 47.08299 -65.69741 36030 ft 450 kts 261°
2026-04-25 20:31 47.06970 -65.78675 36024 ft 449 kts 261°
2026-04-25 20:31 47.05633 -65.87614 36027 ft 448 kts 261°
2026-04-25 20:32 47.04287 -65.96563 36021 ft 447 kts 261°
2026-04-25 20:32 47.02949 -66.05402 36022 ft 446 kts 261°
2026-04-25 20:33 47.01602 -66.14261 36027 ft 444 kts 261°
2026-04-25 20:33 47.00477 -66.21616 36027 ft 444 kts 261°
2026-04-25 20:34 46.98895 -66.31905 36024 ft 443 kts 261°
2026-04-25 20:34 46.97533 -66.40717 36013 ft 442 kts 261°
2026-04-25 20:35 46.96175 -66.49444 36011 ft 441 kts 261°
2026-04-25 20:35 46.94805 -66.58212 36012 ft 441 kts 261°
2026-04-25 20:36 46.93434 -66.66936 36020 ft 441 kts 261°
2026-04-25 20:36 46.92049 -66.75703 36015 ft 441 kts 261°
2026-04-25 20:37 46.90663 -66.84424 36014 ft 441 kts 261°
2026-04-25 20:37 46.89267 -66.93169 36022 ft 441 kts 261°
2026-04-25 20:38 46.87877 -67.01835 36017 ft 439 kts 261°
2026-04-25 20:38 46.86630 -67.10553 36027 ft 435 kts 264°
2026-04-25 20:39 46.85634 -67.19236 36027 ft 434 kts 265°
2026-04-25 20:39 46.84820 -67.26475 36032 ft 433 kts 265°
2026-04-25 20:40 46.83650 -67.36554 36028 ft 432 kts 264°
2026-04-25 20:40 46.82615 -67.45251 36015 ft 432 kts 264°
2026-04-25 20:41 46.81579 -67.53848 36030 ft 431 kts 265°
2026-04-25 20:41 46.80530 -67.62489 36032 ft 431 kts 265°
2026-04-25 20:42 46.79483 -67.71073 36039 ft 431 kts 265°
2026-04-25 20:42 46.78428 -67.79658 36035 ft 431 kts 264°
2026-04-25 20:43 46.77362 -67.88279 36029 ft 431 kts 264°
2026-04-25 20:43 46.76290 -67.96890 36039 ft 431 kts 264°
2026-04-25 20:44 46.75216 -68.05471 36043 ft 431 kts 264°
2026-04-25 20:44 46.74129 -68.14090 36048 ft 431 kts 264°
2026-04-25 20:45 46.73043 -68.22647 36051 ft 431 kts 264°
2026-04-25 20:45 46.71947 -68.31235 36059 ft 431 kts 264°
2026-04-25 20:46 46.70848 -68.39795 36064 ft 431 kts 264°
2026-04-25 20:46 46.69737 -68.48388 36065 ft 430 kts 264°
2026-04-25 20:47 46.68627 -68.56924 36071 ft 430 kts 264°
2026-04-25 20:47 46.67506 -68.65492 36070 ft 430 kts 264°
2026-04-25 20:48 46.66385 -68.74008 36079 ft 429 kts 264°
2026-04-25 20:48 46.65253 -68.82558 36056 ft 429 kts 263°
2026-04-25 20:49 46.64121 -68.91050 36068 ft 429 kts 263°
2026-04-25 20:49 46.62981 -68.99551 36079 ft 428 kts 263°
2026-04-25 20:50 46.61829 -69.08102 36077 ft 429 kts 263°
2026-04-25 20:50 46.60681 -69.16564 36079 ft 428 kts 263°
2026-04-25 20:51 46.59525 -69.25036 36081 ft 428 kts 263°
2026-04-25 20:51 46.58359 -69.33534 36079 ft 428 kts 263°
2026-04-25 20:52 46.57385 -69.40596 36073 ft 428 kts 263°
2026-04-25 20:52 46.56017 -69.50454 36077 ft 426 kts 263°
2026-04-25 20:53 46.54838 -69.58893 36079 ft 425 kts 263°
2026-04-25 20:53 46.53655 -69.67318 36077 ft 424 kts 263°
2026-04-25 20:54 46.52477 -69.75660 36076 ft 423 kts 263°
2026-04-25 20:54 46.51285 -69.84052 36078 ft 422 kts 263°
2026-04-25 20:55 46.50099 -69.92360 36067 ft 421 kts 263°
2026-04-25 20:55 46.48910 -70.00641 36077 ft 420 kts 263°
2026-04-25 20:56 46.47710 -70.08952 36075 ft 419 kts 263°
2026-04-25 20:56 46.46513 -70.17198 36072 ft 418 kts 264°
2026-04-25 20:57 46.45308 -70.25460 36073 ft 418 kts 264°
2026-04-25 20:57 46.44105 -70.33661 36070 ft 417 kts 263°
2026-04-25 20:58 46.42891 -70.41885 36078 ft 416 kts 263°
2026-04-25 20:58 46.41683 -70.50035 36082 ft 415 kts 263°
2026-04-25 20:59 46.40460 -70.58249 36087 ft 417 kts 263°
2026-04-25 20:59 46.39237 -70.66416 36088 ft 417 kts 263°
2026-04-25 21:00 46.38406 -70.71931 36083 ft 418 kts 263°
2026-04-25 21:01 46.36123 -70.86998 36077 ft 417 kts 263°
2026-04-25 21:01 46.34869 -70.95215 36086 ft 417 kts 263°
2026-04-25 21:02 46.33620 -71.03360 36092 ft 416 kts 263°
2026-04-25 21:02 46.32360 -71.11536 36091 ft 415 kts 263°
2026-04-25 21:03 46.31104 -71.19640 36088 ft 414 kts 263°
2026-04-25 21:03 46.29836 -71.27784 36086 ft 414 kts 263°
2026-04-25 21:04 46.28575 -71.35846 36080 ft 413 kts 262°
2026-04-25 21:04 46.27300 -71.43955 36059 ft 412 kts 262°
2026-04-25 21:05 46.26030 -71.51988 36081 ft 411 kts 262°
2026-04-25 21:05 46.24964 -71.58704 36091 ft 411 kts 262°
2026-04-25 21:06 46.23470 -71.68074 36091 ft 410 kts 262°
2026-04-25 21:06 46.22396 -71.74770 36092 ft 410 kts 262°
2026-04-25 21:07 46.21102 -71.82812 36085 ft 410 kts 261°
2026-04-25 21:07 46.19808 -71.90810 36089 ft 411 kts 261°
2026-04-25 21:08 46.18497 -71.98872 36090 ft 411 kts 261°
2026-04-25 21:08 46.17191 -72.06870 36089 ft 411 kts 261°
2026-04-25 21:09 46.15215 -72.18892 36088 ft 411 kts 261°
2026-04-25 21:09 46.13891 -72.26898 36087 ft 411 kts 260°
2026-04-25 21:10 46.12557 -72.34934 36090 ft 411 kts 260°
2026-04-25 21:10 46.11224 -72.42927 36090 ft 411 kts 260°
2026-04-25 21:11 46.09877 -72.50963 36090 ft 411 kts 259°
2026-04-25 21:11 46.08535 -72.58934 36092 ft 412 kts 259°
2026-04-25 21:12 46.07175 -72.66972 36090 ft 412 kts 259°
2026-04-25 21:12 46.06042 -72.73640 36075 ft 411 kts 258°
2026-04-25 21:13 46.04450 -72.82967 36092 ft 411 kts 258°
2026-04-25 21:13 46.03079 -72.90960 36096 ft 411 kts 258°
2026-04-25 21:14 46.01707 -72.98922 36101 ft 411 kts 258°
2026-04-25 21:14 46.00323 -73.06919 36102 ft 411 kts 258°
2026-04-25 21:15 45.98932 -73.14920 36101 ft 412 kts 258°
2026-04-25 21:15 45.97543 -73.22869 36102 ft 411 kts 258°
2026-04-25 21:16 45.96139 -73.30873 36103 ft 411 kts 257°
2026-04-25 21:16 45.94741 -73.38804 36103 ft 411 kts 257°
2026-04-25 21:17 45.93331 -73.46773 36101 ft 410 kts 257°
2026-04-25 21:17 45.91926 -73.54671 36103 ft 409 kts 257°
2026-04-25 21:18 45.90506 -73.62625 36105 ft 409 kts 257°
2026-04-25 21:18 45.89096 -73.70489 36103 ft 408 kts 257°